Location: Leipzig
(51.3392°N, 12.3528°E)
Time: 02:05:23
(UTC+01:00)

ISS - Pass Details

Date: 12 November 2017
Orbit: 402 x 407 km, 51.6° (Epoch: 21 November)

Event Time Altitude Azimuth Distance (km) Brightness Sun altitude
Exits shadow 04:19:52 17° 90° (E) 1,099 -0.9 -28.5°
Drops below altitude 10° 04:20:45 10° 91° (E) 1,457 -0.1 -28.4°
Sets 04:22:50 0° 92° (E) 2,316 1.2 -28.0°
